Location: Seasalter
(51.3333°N, 1.0167°E)
Time: 04:55:20
(UTC+00:00)

CZ-4C R/B - Pass Details

Date: 26 September 2023
Orbit: 543 x 1453 km, 63.4° (Epoch: 29 November)

Event Time Altitude Azimuth Distance (km) Brightness Sun altitude
Rises 00:05:48 0° 314° (NW) 3,721 6.0 -39.6°
Reaches altitude 10° 00:08:11 10° 313° (NW) 2,890 5.3 -39.5°
Enters shadow 00:10:56 27° 308° (NW) 2,010 4.3 -39.5°
